STARLINK-5701, 55487

Orbit data source: Space-Track

STARLINK-5701, 55487 is a payload satellite owned by SpaceX/Seattle (US) in LEO that was launched on Thu, 02 Feb 2023 UTC via an FALCON 9 launch vehicle from the Air Force Eastern Test Range (AFETR). Payload-class satellites include a variety of spacecraft equipped with specific instruments for various scientific and technological missions. These include communications satellites like Starlink; space stations such as the ISS; scientific satellites like the Hubble; Earth observation satellites from companies like Planet Labs, Umbra, and HawkEye 360; GPS; miniature CubeSats for education and research; and military/defense satellites.

Loading next visibility...
Identifier
55487, 2023-015AQ
Orbit
LEO
Country
Flag of USUS
Related business
Manufacturer
SpaceX/Seattle
Mission
Operational Commercial Communications
Bus & Motor
STARLINK, Unknown motor
Mass
305 kg wet, ~290 kg dry
Launch date (UTC)
2023-02-02 (3 years ago)
Launch vehicle
FALCON 9
Launch site
Air Force Eastern Test Range (AFETR)
Object type
Payload
Rocket body
Debris
Shape & HBR
Box + 1 Pan, 10.1 m
Radar Cross Section
13.562 m², Large (>1 m²)

Expand to show TLE details & history
Last TLE update: 16 hours ago

TLE from 16 hours ago
0 STARLINK-5701
1 55487U 23015AQ  26035.39197448  .00000174  00000-0  27907-4 0  9992
2 55487  42.9994 160.0392 0001297 272.2822  87.7872 15.02546447165596
Epoch: 2026-02-04T09:24Z
TLE epoch observation values (Epoch: 2026-02-04T09:24:26.595Z)
Latitude
0.00001°
Longitude
-115.63082°
Altitude
558.791 km
Speed
7.584 km/s
True Right ascension
10h 40m 09s
True Declination
0° 00' 00"
Sunlit
Object was in full shadow at epoch
Visualization orbit readout
Latitude
Unknown
Longitude
Unknown
Altitude
Unknown
Speed
Unknown
Apparent Right ascension
Unknown
Apparent Declination
Unknown
Sunlit
N/A
Visualization observer readout
Local Sidereal Time
03:02:48
Azimuth
Unknown
Elevation
Unknown
Doppler factor
Unknown
Orbital elements
Apogee altitude
561.871 km
Perigee altitude
560.071 km
Semi-major axis
6,939.108 km
Eccentricity
0.00013
Inclination
42.9994°
RAAN
160.0392°
Arg. of periapsis
272.2822°
True anomaly
87.80205°
Mean anomaly
87.7872°
Eccentric anomaly
87.79463°
Mean motion
3.75481 °/min
Orbital period
95.88 mins
BSTAR
0.000027907
Loading maneuver chart data...
Computing Atmospheric mass density...
Loading historical data...
Loading historical data...
Loading historical data...
Loading historical data...
Loading historical data...
Loading historical data...
Loading historical data...

Documentation

Showing up to 5 results
|